Time,TemperatureF,DewpointF,PressureIn,WindDirection,WindDirectionDegrees,WindSpeedMPH,WindSpeedGustMPH,Humidity,HourlyPrecipIn,Conditions,Clouds,dailyrainin,SoftwareType,DateUTC
2013-03-15 00:00:00,29.7,18.6,30.15,WNW,293,0.0,0.0,63,0.00,,,0.00,WUHU216HW,2013-03-15 04:00:00,
2013-03-15 00:05:00,29.7,18.6,30.15,WNW,293,0.0,0.0,63,0.00,,,0.00,WUHU216HW,2013-03-15 04:05:00,
2013-03-15 00:10:00,29.5,18.5,30.15,WNW,293,0.0,0.0,63,0.00,,,0.00,WUHU216HW,2013-03-15 04:10:00,
2013-03-15 00:15:00,29.5,18.5,30.15,West,270,0.0,0.4,63,0.00,,,0.00,WUHU216HW,2013-03-15 04:15:00,
2013-03-15 00:20:00,29.5,18.8,30.14,West,270,0.0,0.4,64,0.00,,,0.00,WUHU216HW,2013-03-15 04:20:00,
2013-03-15 00:25:00,29.5,18.8,30.14,WNW,293,0.0,0.0,64,0.00,,,0.00,WUHU216HW,2013-03-15 04:25:00,
2013-03-15 00:30:00,29.3,18.6,30.14,WNW,293,0.0,0.0,64,0.00,,,0.00,WUHU216HW,2013-03-15 04:30:00,
2013-03-15 00:35:00,29.3,18.6,30.14,WNW,293,0.0,0.0,64,0.00,,,0.00,WUHU216HW,2013-03-15 04:35:00,
2013-03-15 00:40:00,29.3,19.0,30.14,WNW,293,0.0,0.0,65,0.00,,,0.00,WUHU216HW,2013-03-15 04:40:00,
2013-03-15 00:45:00,29.3,19.0,30.14,NW,315,0.0,0.0,65,0.00,,,0.00,WUHU216HW,2013-03-15 04:45:00,
2013-03-15 00:50:00,29.3,19.0,30.13,NW,315,0.0,0.2,65,0.00,,,0.00,WUHU216HW,2013-03-15 04:50:00,
2013-03-15 00:55:00,29.3,18.6,30.13,West,270,0.0,0.2,64,0.00,,,0.00,WUHU216HW,2013-03-15 04:55:00,
2013-03-15 01:00:00,29.3,19.0,30.13,West,270,0.0,0.0,65,0.00,,,0.00,WUHU216HW,2013-03-15 05:00:00,
2013-03-15 01:05:00,29.3,19.0,30.12,West,270,0.0,0.2,65,0.00,,,0.00,WUHU216HW,2013-03-15 05:05:00,
2013-03-15 01:10:00,29.2,18.5,30.12,West,270,0.0,0.2,64,0.00,,,0.00,WUHU216HW,2013-03-15 05:10:00,
2013-03-15 01:15:00,29.2,18.5,30.12,West,270,0.4,0.4,64,0.00,,,0.00,WUHU216HW,2013-03-15 05:15:00,
2013-03-15 01:20:00,29.2,18.8,30.12,West,270,0.0,0.4,65,0.00,,,0.00,WUHU216HW,2013-03-15 05:20:00,
2013-03-15 01:25:00,29.2,18.8,30.12,West,270,0.0,0.2,65,0.00,,,0.00,WUHU216HW,2013-03-15 05:25:00,
2013-03-15 01:30:00,29.2,18.8,30.12,West,270,0.0,0.2,65,0.00,,,0.00,WUHU216HW,2013-03-15 05:30:00,
2013-03-15 01:35:00,29.2,18.8,30.12,West,270,0.2,0.2,65,0.00,,,0.00,WUHU216HW,2013-03-15 05:35:00,
2013-03-15 01:40:00,29.2,19.2,30.12,West,270,0.0,0.2,66,0.00,,,0.00,WUHU216HW,2013-03-15 05:40:00,
2013-03-15 01:45:00,29.0,18.6,30.12,West,270,0.0,0.0,65,0.00,,,0.00,WUHU216HW,2013-03-15 05:45:00,
2013-03-15 01:50:00,29.0,19.0,30.12,West,270,0.0,0.0,66,0.00,,,0.00,WUHU216HW,2013-03-15 05:50:00,
2013-03-15 01:55:00,28.8,18.9,30.12,West,270,0.0,0.0,66,0.00,,,0.00,WUHU216HW,2013-03-15 05:55:00,
2013-03-15 02:00:00,28.8,18.9,30.12,West,270,0.0,0.2,66,0.00,,,0.00,WUHU216HW,2013-03-15 06:00:00,
2013-03-15 02:05:00,28.8,18.9,30.12,West,270,0.0,0.4,66,0.00,,,0.00,WUHU216HW,2013-03-15 06:05:00,
2013-03-15 02:10:00,28.8,18.9,30.12,West,270,0.0,0.4,66,0.00,,,0.00,WUHU216HW,2013-03-15 06:10:00,
2013-03-15 02:15:00,29.0,19.0,30.12,WSW,248,0.4,0.4,66,0.00,,,0.00,WUHU216HW,2013-03-15 06:15:00,
2013-03-15 02:20:00,29.0,19.0,30.12,West,270,0.0,0.4,66,0.00,,,0.00,WUHU216HW,2013-03-15 06:20:00,
2013-03-15 02:25:00,28.8,18.9,30.12,West,270,0.0,0.2,66,0.00,,,0.00,WUHU216HW,2013-03-15 06:25:00,
2013-03-15 02:30:00,28.6,18.7,30.12,West,270,0.0,0.0,66,0.00,,,0.00,WUHU216HW,2013-03-15 06:30:00,
2013-03-15 02:35:00,28.6,18.7,30.12,West,270,0.0,0.0,66,0.00,,,0.00,WUHU216HW,2013-03-15 06:35:00,
2013-03-15 02:40:00,28.6,18.7,30.11,WSW,248,0.0,0.0,66,0.00,,,0.00,WUHU216HW,2013-03-15 06:40:00,
2013-03-15 02:45:00,28.6,18.7,30.11,WNW,293,0.0,0.4,66,0.00,,,0.00,WUHU216HW,2013-03-15 06:45:00,
2013-03-15 02:50:00,28.4,18.9,30.11,WSW,248,0.0,0.4,67,0.00,,,0.00,WUHU216HW,2013-03-15 06:50:00,
2013-03-15 02:55:00,28.4,18.9,30.11,West,270,0.0,0.2,67,0.00,,,0.00,WUHU216HW,2013-03-15 06:55:00,
2013-03-15 03:00:00,28.4,18.9,30.11,WSW,248,0.0,0.4,67,0.00,,,0.00,WUHU216HW,2013-03-15 07:00:00,
2013-03-15 03:05:00,28.6,19.1,30.10,West,270,0.0,0.4,67,0.00,,,0.00,WUHU216HW,2013-03-15 07:05:00,
2013-03-15 03:10:00,28.6,19.1,30.10,West,270,0.0,0.0,67,0.00,,,0.00,WUHU216HW,2013-03-15 07:10:00,
2013-03-15 03:15:00,28.6,19.1,30.10,West,270,0.2,0.2,67,0.00,,,0.00,WUHU216HW,2013-03-15 07:15:00,
2013-03-15 03:20:00,28.6,19.1,30.10,WSW,248,0.0,0.2,67,0.00,,,0.00,WUHU216HW,2013-03-15 07:20:00,
2013-03-15 03:25:00,28.4,18.9,30.10,West,270,0.0,0.4,67,0.00,,,0.00,WUHU216HW,2013-03-15 07:25:00,
2013-03-15 03:30:00,28.4,18.9,30.10,West,270,0.2,0.4,67,0.00,,,0.00,WUHU216HW,2013-03-15 07:30:00,
2013-03-15 03:35:00,28.4,18.9,30.10,SSW,203,0.0,0.4,67,0.00,,,0.00,WUHU216HW,2013-03-15 07:35:00,
2013-03-15 03:40:00,28.4,19.3,30.10,NW,315,0.0,0.2,68,0.00,,,0.00,WUHU216HW,2013-03-15 07:40:00,
2013-03-15 03:45:00,28.4,18.9,30.09,WNW,293,0.0,0.2,67,0.00,,,0.00,WUHU216HW,2013-03-15 07:45:00,
2013-03-15 03:50:00,28.4,18.9,30.09,West,270,0.2,0.2,67,0.00,,,0.00,WUHU216HW,2013-03-15 07:50:00,
2013-03-15 03:55:00,28.4,18.9,30.09,West,270,0.0,0.2,67,0.00,,,0.00,WUHU216HW,2013-03-15 07:55:00,
2013-03-15 04:00:00,28.4,19.3,30.09,WSW,248,0.2,0.2,68,0.00,,,0.00,WUHU216HW,2013-03-15 08:00:00,
2013-03-15 04:05:00,28.3,18.7,30.08,West,270,0.0,0.7,67,0.00,,,0.00,WUHU216HW,2013-03-15 08:05:00,
2013-03-15 04:10:00,28.3,19.1,30.08,WNW,293,0.0,0.7,68,0.00,,,0.00,WUHU216HW,2013-03-15 08:10:00,
2013-03-15 04:15:00,28.1,18.9,30.08,West,270,1.1,1.1,68,0.00,,,0.00,WUHU216HW,2013-03-15 08:15:00,
2013-03-15 04:20:00,28.1,18.9,30.08,SW,225,0.2,1.1,68,0.00,,,0.00,WUHU216HW,2013-03-15 08:20:00,
2013-03-15 04:25:00,28.3,19.1,30.07,NW,315,0.0,1.1,68,0.00,,,0.00,WUHU216HW,2013-03-15 08:25:00,
2013-03-15 04:30:00,28.3,19.1,30.07,NW,315,0.0,0.4,68,0.00,,,0.00,WUHU216HW,2013-03-15 08:30:00,
2013-03-15 04:35:00,28.3,19.1,30.07,SSW,203,0.0,0.4,68,0.00,,,0.00,WUHU216HW,2013-03-15 08:35:00,
2013-03-15 04:40:00,28.3,19.1,30.07,West,270,0.0,0.4,68,0.00,,,0.00,WUHU216HW,2013-03-15 08:40:00,
2013-03-15 04:45:00,28.3,19.1,30.07,WNW,293,0.7,0.9,68,0.00,,,0.00,WUHU216HW,2013-03-15 08:45:00,
2013-03-15 04:50:00,28.3,19.1,30.07,West,270,0.0,0.9,68,0.00,,,0.00,WUHU216HW,2013-03-15 08:50:00,
2013-03-15 04:55:00,28.3,19.1,30.06,West,270,0.0,0.2,68,0.00,,,0.00,WUHU216HW,2013-03-15 08:55:00,
2013-03-15 05:00:00,28.3,19.1,30.06,NW,315,0.4,0.4,68,0.00,,,0.00,WUHU216HW,2013-03-15 09:00:00,
2013-03-15 05:05:00,28.1,18.9,30.06,West,270,0.0,0.4,68,0.00,,,0.00,WUHU216HW,2013-03-15 09:05:00,
2013-03-15 05:10:00,28.1,18.9,30.06,West,270,0.0,0.2,68,0.00,,,0.00,WUHU216HW,2013-03-15 09:10:00,
2013-03-15 05:15:00,28.1,19.3,30.06,West,270,0.0,0.2,69,0.00,,,0.00,WUHU216HW,2013-03-15 09:15:00,
2013-03-15 05:20:00,28.1,19.3,30.07,SW,225,0.2,0.4,69,0.00,,,0.00,WUHU216HW,2013-03-15 09:20:00,
2013-03-15 05:25:00,28.3,19.4,30.06,WNW,293,0.0,0.7,69,0.00,,,0.00,WUHU216HW,2013-03-15 09:25:00,
2013-03-15 05:30:00,28.3,19.4,30.06,NW,315,0.4,0.9,69,0.00,,,0.00,WUHU216HW,2013-03-15 09:30:00,
2013-03-15 05:35:00,28.4,19.6,30.06,West,270,0.2,0.9,69,0.00,,,0.00,WUHU216HW,2013-03-15 09:35:00,
2013-03-15 05:40:00,28.4,19.6,30.06,SW,225,0.0,1.1,69,0.00,,,0.00,WUHU216HW,2013-03-15 09:40:00,
2013-03-15 05:45:00,28.4,19.6,30.06,West,270,0.4,1.6,69,0.00,,,0.00,WUHU216HW,2013-03-15 09:45:00,
2013-03-15 05:50:00,28.4,19.6,30.06,West,270,0.2,1.6,69,0.00,,,0.00,WUHU216HW,2013-03-15 09:50:00,
2013-03-15 05:55:00,28.4,19.3,30.06,SSW,203,0.2,1.1,68,0.00,,,0.00,WUHU216HW,2013-03-15 09:55:00,
2013-03-15 06:00:00,28.4,19.6,30.05,SSW,203,0.2,1.1,69,0.00,,,0.00,WUHU216HW,2013-03-15 10:00:00,
2013-03-15 06:05:00,28.4,19.6,30.05,SW,225,0.0,1.1,69,0.00,,,0.00,WUHU216HW,2013-03-15 10:05:00,
2013-03-15 06:10:00,28.3,19.4,30.05,West,270,0.0,0.9,69,0.00,,,0.00,WUHU216HW,2013-03-15 10:10:00,
2013-03-15 06:15:00,28.3,19.4,30.05,WSW,248,0.4,0.9,69,0.00,,,0.00,WUHU216HW,2013-03-15 10:15:00,
2013-03-15 06:20:00,28.3,19.4,30.05,West,270,0.0,1.1,69,0.00,,,0.00,WUHU216HW,2013-03-15 10:20:00,
2013-03-15 06:25:00,28.3,19.4,30.05,West,270,0.0,1.1,69,0.00,,,0.00,WUHU216HW,2013-03-15 10:25:00,
2013-03-15 06:30:00,28.3,19.4,30.05,West,270,0.4,0.4,69,0.00,,,0.00,WUHU216HW,2013-03-15 10:30:00,
2013-03-15 06:35:00,28.4,19.6,30.05,NW,315,0.2,1.1,69,0.00,,,0.00,WUHU216HW,2013-03-15 10:35:00,
2013-03-15 06:40:00,28.4,19.6,30.05,SW,225,0.0,1.1,69,0.00,,,0.00,WUHU216HW,2013-03-15 10:40:00,
2013-03-15 06:45:00,28.4,19.6,30.05,SW,225,0.0,1.1,69,0.00,,,0.00,WUHU216HW,2013-03-15 10:45:00,
2013-03-15 06:50:00,28.4,19.6,30.05,WSW,248,0.0,1.3,69,0.00,,,0.00,WUHU216HW,2013-03-15 10:50:00,
2013-03-15 06:55:00,28.4,19.6,30.05,WSW,248,0.0,1.3,69,0.00,,,0.00,WUHU216HW,2013-03-15 10:55:00,
2013-03-15 07:00:00,28.6,19.8,30.05,WSW,248,0.7,1.1,69,0.00,,,0.00,WUHU216HW,2013-03-15 11:00:00,
2013-03-15 07:05:00,28.8,20.0,30.05,SW,225,0.4,1.1,69,0.00,,,0.00,WUHU216HW,2013-03-15 11:05:00,
2013-03-15 07:10:00,29.0,20.1,30.05,West,270,0.4,0.4,69,0.00,,,0.00,WUHU216HW,2013-03-15 11:10:00,
2013-03-15 07:15:00,29.2,20.3,30.04,SW,225,0.0,0.4,69,0.00,,,0.00,WUHU216HW,2013-03-15 11:15:00,
2013-03-15 07:20:00,29.2,20.3,30.04,SSW,203,0.0,0.9,69,0.00,,,0.00,WUHU216HW,2013-03-15 11:20:00,
2013-03-15 07:25:00,29.2,20.3,30.04,SSW,203,0.4,0.9,69,0.00,,,0.00,WUHU216HW,2013-03-15 11:25:00,
2013-03-15 07:30:00,29.3,20.4,30.04,SW,225,0.0,0.9,69,0.00,,,0.00,WUHU216HW,2013-03-15 11:30:00,
2013-03-15 07:35:00,29.5,20.6,30.03,SW,225,0.4,0.9,69,0.00,,,0.00,WUHU216HW,2013-03-15 11:35:00,
2013-03-15 07:40:00,29.5,20.6,30.04,SSW,203,0.0,0.7,69,0.00,,,0.00,WUHU216HW,2013-03-15 11:40:00,
2013-03-15 07:45:00,29.7,20.4,30.03,SW,225,0.2,0.9,68,0.00,,,0.00,WUHU216HW,2013-03-15 11:45:00,
2013-03-15 07:50:00,29.9,20.5,30.04,West,270,0.0,1.1,68,0.00,,,0.00,WUHU216HW,2013-03-15 11:50:00,
2013-03-15 07:55:00,29.9,20.5,30.04,West,270,0.4,1.1,68,0.00,,,0.00,WUHU216HW,2013-03-15 11:55:00,
2013-03-15 08:00:00,30.2,20.5,30.03,WNW,293,0.0,0.9,67,0.00,,,0.00,WUHU216HW,2013-03-15 12:00:00,
2013-03-15 08:05:00,30.2,20.5,30.03,SW,225,0.2,1.1,67,0.00,,,0.00,WUHU216HW,2013-03-15 12:05:00,
2013-03-15 08:10:00,30.6,20.5,30.03,SSW,203,1.1,2.2,66,0.00,,,0.00,WUHU216HW,2013-03-15 12:10:00,
2013-03-15 08:15:00,30.6,20.5,30.04,West,270,0.4,2.2,66,0.00,,,0.00,WUHU216HW,2013-03-15 12:15:00,
2013-03-15 08:20:00,30.8,20.7,30.03,SW,225,0.0,1.1,66,0.00,,,0.00,WUHU216HW,2013-03-15 12:20:00,
2013-03-15 08:25:00,31.0,20.9,30.03,West,270,0.7,1.1,66,0.00,,,0.00,WUHU216HW,2013-03-15 12:25:00,
2013-03-15 08:30:00,31.0,20.9,30.03,West,270,0.4,1.1,66,0.00,,,0.00,WUHU216HW,2013-03-15 12:30:00,
2013-03-15 08:35:00,31.3,21.2,30.02,West,270,2.2,2.2,66,0.00,,,0.00,WUHU216HW,2013-03-15 12:35:00,
2013-03-15 08:40:00,31.5,21.1,30.03,West,270,0.0,2.2,65,0.00,,,0.00,WUHU216HW,2013-03-15 12:40:00,
2013-03-15 08:45:00,31.7,21.2,30.02,WSW,248,0.4,1.6,65,0.00,,,0.00,WUHU216HW,2013-03-15 12:45:00,
2013-03-15 08:50:00,32.0,21.6,30.02,West,270,0.9,1.3,65,0.00,,,0.00,WUHU216HW,2013-03-15 12:50:00,
2013-03-15 08:55:00,32.0,21.2,30.02,WSW,248,1.6,1.8,64,0.00,,,0.00,WUHU216HW,2013-03-15 12:55:00,
2013-03-15 09:00:00,32.4,21.6,30.02,West,270,0.9,2.0,64,0.00,,,0.00,WUHU216HW,2013-03-15 13:00:00,
2013-03-15 09:05:00,32.8,21.9,30.02,WSW,248,0.4,2.0,64,0.00,,,0.00,WUHU216HW,2013-03-15 13:05:00,
2013-03-15 09:10:00,33.1,21.9,30.02,WSW,248,1.3,1.6,63,0.00,,,0.00,WUHU216HW,2013-03-15 13:10:00,
2013-03-15 09:15:00,33.5,21.8,30.02,WSW,248,1.6,2.2,62,0.00,,,0.00,WUHU216HW,2013-03-15 13:15:00,
2013-03-15 09:20:00,33.7,22.0,30.02,West,270,0.4,3.4,62,0.00,,,0.00,WUHU216HW,2013-03-15 13:20:00,
2013-03-15 09:25:00,34.0,22.3,30.02,WSW,248,1.1,3.4,62,0.00,,,0.00,WUHU216HW,2013-03-15 13:25:00,
2013-03-15 09:30:00,34.2,22.1,30.02,WSW,248,0.4,1.8,61,0.00,,,0.00,WUHU216HW,2013-03-15 13:30:00,
2013-03-15 09:35:00,34.6,22.5,30.01,SW,225,1.1,2.5,61,0.00,,,0.00,WUHU216HW,2013-03-15 13:35:00,
2013-03-15 09:40:00,35.1,23.0,30.01,SSW,203,3.4,3.4,61,0.00,,,0.00,WUHU216HW,2013-03-15 13:40:00,
2013-03-15 09:45:00,35.6,23.2,30.01,West,270,2.7,3.4,60,0.00,,,0.00,WUHU216HW,2013-03-15 13:45:00,
2013-03-15 09:50:00,36.2,23.7,30.01,WSW,248,0.7,5.1,60,0.00,,,0.00,WUHU216HW,2013-03-15 13:50:00,
2013-03-15 09:55:00,36.5,24.0,30.00,WSW,248,3.6,5.1,60,0.00,,,0.00,WUHU216HW,2013-03-15 13:55:00,
2013-03-15 10:00:00,36.7,24.2,30.00,WSW,248,2.7,3.6,60,0.00,,,0.00,WUHU216HW,2013-03-15 14:00:00,
2013-03-15 10:05:00,37.4,24.8,30.00,SSW,203,3.8,4.3,60,0.00,,,0.00,WUHU216HW,2013-03-15 14:05:00,
2013-03-15 10:10:00,37.8,25.2,30.00,SW,225,1.8,4.3,60,0.00,,,0.00,WUHU216HW,2013-03-15 14:10:00,
2013-03-15 10:15:00,38.2,25.5,30.00,WSW,248,1.3,6.7,60,0.00,,,0.00,WUHU216HW,2013-03-15 14:15:00,
2013-03-15 10:20:00,38.0,24.9,30.00,West,270,0.9,6.7,59,0.00,,,0.00,WUHU216HW,2013-03-15 14:20:00,
2013-03-15 10:25:00,38.2,25.0,29.99,SW,225,4.0,4.0,59,0.00,,,0.00,WUHU216HW,2013-03-15 14:25:00,
2013-03-15 10:30:00,38.5,25.8,29.99,SSW,203,1.3,4.0,60,0.00,,,0.00,WUHU216HW,2013-03-15 14:30:00,
2013-03-15 10:35:00,39.1,26.3,29.99,West,270,1.1,3.1,60,0.00,,,0.00,WUHU216HW,2013-03-15 14:35:00,
2013-03-15 10:40:00,39.4,26.2,29.99,West,270,4.3,4.3,59,0.00,,,0.00,WUHU216HW,2013-03-15 14:40:00,
2013-03-15 10:45:00,39.6,26.4,29.99,West,270,4.3,4.3,59,0.00,,,0.00,WUHU216HW,2013-03-15 14:45:00,
2013-03-15 10:50:00,40.0,26.7,29.99,WSW,248,4.0,4.3,59,0.00,,,0.00,WUHU216HW,2013-03-15 14:50:00,
2013-03-15 10:55:00,40.1,27.4,29.98,West,270,3.1,4.0,60,0.00,,,0.00,WUHU216HW,2013-03-15 14:55:00,
2013-03-15 11:00:00,40.5,27.7,29.99,WNW,293,1.1,3.4,60,0.00,,,0.00,WUHU216HW,2013-03-15 15:00:00,
2013-03-15 11:05:00,40.1,27.4,29.98,WSW,248,1.1,4.0,60,0.00,,,0.00,WUHU216HW,2013-03-15 15:05:00,
2013-03-15 11:10:00,40.7,28.3,29.98,NW,315,2.2,4.3,61,0.00,,,0.00,WUHU216HW,2013-03-15 15:10:00,
2013-03-15 11:15:00,41.4,28.6,29.98,SSW,203,1.1,4.3,60,0.00,,,0.00,WUHU216HW,2013-03-15 15:15:00,
2013-03-15 11:20:00,41.6,28.7,29.98,West,270,1.1,3.4,60,0.00,,,0.00,WUHU216HW,2013-03-15 15:20:00,
2013-03-15 11:25:00,41.9,29.1,29.97,WSW,248,0.4,3.4,60,0.00,,,0.00,WUHU216HW,2013-03-15 15:25:00,
2013-03-15 11:30:00,41.8,28.4,29.97,WSW,248,2.5,4.7,59,0.00,,,0.00,WUHU216HW,2013-03-15 15:30:00,
2013-03-15 11:35:00,41.4,28.6,29.96,WSW,248,1.8,4.7,60,0.00,,,0.00,WUHU216HW,2013-03-15 15:35:00,
2013-03-15 11:40:00,41.0,28.6,29.96,WSW,248,2.5,3.4,61,0.00,,,0.00,WUHU216HW,2013-03-15 15:40:00,
2013-03-15 11:45:00,41.2,28.8,29.97,SSW,203,1.6,3.1,61,0.00,,,0.00,WUHU216HW,2013-03-15 15:45:00,
2013-03-15 11:50:00,41.2,28.8,29.96,West,270,3.4,3.8,61,0.00,,,0.00,WUHU216HW,2013-03-15 15:50:00,
2013-03-15 11:55:00,41.0,29.0,29.96,WSW,248,0.4,3.8,62,0.00,,,0.00,WUHU216HW,2013-03-15 15:55:00,
2013-03-15 12:00:00,40.3,28.3,29.96,West,270,1.6,2.0,62,0.00,,,0.00,WUHU216HW,2013-03-15 16:00:00,
2013-03-15 12:05:00,40.3,28.7,29.96,West,270,1.1,3.4,63,0.00,,,0.00,WUHU216HW,2013-03-15 16:05:00,
2013-03-15 12:10:00,40.0,28.4,29.96,WSW,248,0.7,3.4,63,0.00,,,0.00,WUHU216HW,2013-03-15 16:10:00,
2013-03-15 12:15:00,40.3,28.7,29.96,WSW,248,0.4,3.4,63,0.00,,,0.00,WUHU216HW,2013-03-15 16:15:00,
2013-03-15 12:20:00,40.5,28.9,29.96,West,270,1.1,2.5,63,0.00,,,0.00,WUHU216HW,2013-03-15 16:20:00,
2013-03-15 12:25:00,40.9,29.3,29.96,WSW,248,3.1,3.1,63,0.00,,,0.00,WUHU216HW,2013-03-15 16:25:00,
2013-03-15 12:30:00,41.4,29.7,29.95,SW,225,2.5,3.1,63,0.00,,,0.00,WUHU216HW,2013-03-15 16:30:00,
2013-03-15 12:35:00,41.6,29.5,29.95,SW,225,1.6,2.5,62,0.00,,,0.00,WUHU216HW,2013-03-15 16:35:00,
2013-03-15 12:40:00,41.9,29.4,29.95,WSW,248,1.1,2.5,61,0.00,,,0.00,WUHU216HW,2013-03-15 16:40:00,
2013-03-15 12:45:00,42.5,30.0,29.95,West,270,2.9,8.5,61,0.00,,,0.00,WUHU216HW,2013-03-15 16:45:00,
2013-03-15 12:50:00,42.3,29.0,29.95,NW,315,1.8,8.5,59,0.00,,,0.00,WUHU216HW,2013-03-15 16:50:00,
2013-03-15 12:55:00,42.3,28.5,29.94,NW,315,2.5,4.0,58,0.00,,,0.00,WUHU216HW,2013-03-15 16:55:00,
2013-03-15 13:00:00,42.7,28.9,29.94,West,270,1.1,4.0,58,0.00,,,0.00,WUHU216HW,2013-03-15 17:00:00,
2013-03-15 13:05:00,43.4,29.1,29.94,WSW,248,4.5,4.5,57,0.00,,,0.00,WUHU216HW,2013-03-15 17:05:00,
2013-03-15 13:10:00,44.3,30.4,29.93,WNW,293,1.8,5.8,58,0.00,,,0.00,WUHU216HW,2013-03-15 17:10:00,
2013-03-15 13:15:00,45.0,30.7,29.93,WSW,248,1.1,5.8,57,0.00,,,0.00,WUHU216HW,2013-03-15 17:15:00,
2013-03-15 13:20:00,45.7,30.9,29.92,SSW,203,2.2,4.3,56,0.00,,,0.00,WUHU216HW,2013-03-15 17:20:00,
2013-03-15 13:25:00,46.8,31.9,29.92,SSW,203,5.4,5.4,56,0.00,,,0.00,WUHU216HW,2013-03-15 17:25:00,
2013-03-15 13:30:00,47.2,30.8,29.92,WSW,248,4.5,5.4,53,0.00,,,0.00,WUHU216HW,2013-03-15 17:30:00,
2013-03-15 13:35:00,46.6,29.4,29.92,WSW,248,0.7,4.7,51,0.00,,,0.00,WUHU216HW,2013-03-15 17:35:00,
2013-03-15 13:40:00,46.4,29.3,29.91,West,270,2.5,4.7,51,0.00,,,0.00,WUHU216HW,2013-03-15 17:40:00,
2013-03-15 13:45:00,46.4,29.7,29.91,West,270,3.4,4.7,52,0.00,,,0.00,WUHU216HW,2013-03-15 17:45:00,
2013-03-15 13:50:00,46.6,30.3,29.91,WNW,293,1.3,4.7,53,0.00,,,0.00,WUHU216HW,2013-03-15 17:50:00,
2013-03-15 13:55:00,47.0,30.3,29.90,SW,225,1.8,3.6,52,0.00,,,0.00,WUHU216HW,2013-03-15 17:55:00,
2013-03-15 14:00:00,47.5,30.3,29.90,WNW,293,5.4,5.4,51,0.00,,,0.00,WUHU216HW,2013-03-15 18:00:00,
2013-03-15 14:05:00,47.5,30.7,29.89,WSW,248,2.0,6.3,52,0.00,,,0.00,WUHU216HW,2013-03-15 18:05:00,
2013-03-15 14:10:00,47.9,30.6,29.89,West,270,4.9,6.3,51,0.00,,,0.00,WUHU216HW,2013-03-15 18:10:00,
2013-03-15 14:15:00,47.7,30.4,29.89,West,270,1.8,4.9,51,0.00,,,0.00,WUHU216HW,2013-03-15 18:15:00,
2013-03-15 14:20:00,47.7,30.4,29.89,West,270,1.8,4.0,51,0.00,,,0.00,WUHU216HW,2013-03-15 18:20:00,
2013-03-15 14:25:00,47.7,30.4,29.89,West,270,1.1,3.6,51,0.00,,,0.00,WUHU216HW,2013-03-15 18:25:00,
2013-03-15 14:30:00,48.1,31.2,29.89,WSW,248,2.7,4.5,52,0.00,,,0.00,WUHU216HW,2013-03-15 18:30:00,
2013-03-15 14:35:00,48.4,31.1,29.89,West,270,0.9,4.5,51,0.00,,,0.00,WUHU216HW,2013-03-15 18:35:00,
2013-03-15 14:40:00,48.6,30.8,29.88,SSW,203,2.7,5.1,50,0.00,,,0.00,WUHU216HW,2013-03-15 18:40:00,
2013-03-15 14:45:00,48.8,31.0,29.88,West,270,3.4,5.1,50,0.00,,,0.00,WUHU216HW,2013-03-15 18:45:00,
2013-03-15 14:50:00,48.6,30.8,29.88,West,270,1.6,3.8,50,0.00,,,0.00,WUHU216HW,2013-03-15 18:50:00,
2013-03-15 14:55:00,48.6,30.8,29.87,West,270,1.8,5.4,50,0.00,,,0.00,WUHU216HW,2013-03-15 18:55:00,
2013-03-15 15:00:00,49.1,31.8,29.87,WSW,248,4.7,5.4,51,0.00,,,0.00,WUHU216HW,2013-03-15 19:00:00,
2013-03-15 15:05:00,49.1,31.3,29.87,WNW,293,2.7,4.7,50,0.00,,,0.00,WUHU216HW,2013-03-15 19:05:00,
2013-03-15 15:10:00,48.6,30.8,29.87,WNW,293,3.1,3.6,50,0.00,,,0.00,WUHU216HW,2013-03-15 19:10:00,
2013-03-15 15:15:00,48.2,30.9,29.87,WNW,293,0.9,5.6,51,0.00,,,0.00,WUHU216HW,2013-03-15 19:15:00,
2013-03-15 15:20:00,47.9,30.6,29.87,WSW,248,2.0,5.6,51,0.00,,,0.00,WUHU216HW,2013-03-15 19:20:00,
2013-03-15 15:25:00,48.1,31.2,29.86,West,270,2.0,3.8,52,0.00,,,0.00,WUHU216HW,2013-03-15 19:25:00,
2013-03-15 15:30:00,48.1,31.2,29.86,WNW,293,1.1,3.4,52,0.00,,,0.00,WUHU216HW,2013-03-15 19:30:00,
2013-03-15 15:35:00,48.4,31.1,29.86,WSW,248,1.8,2.5,51,0.00,,,0.00,WUHU216HW,2013-03-15 19:35:00,
2013-03-15 15:40:00,48.6,31.2,29.86,West,270,0.4,3.6,51,0.00,,,0.00,WUHU216HW,2013-03-15 19:40:00,
2013-03-15 15:45:00,48.8,31.4,29.86,West,270,1.8,6.9,51,0.00,,,0.00,WUHU216HW,2013-03-15 19:45:00,
2013-03-15 15:50:00,49.5,32.1,29.86,WNW,293,2.2,6.9,51,0.00,,,0.00,WUHU216HW,2013-03-15 19:50:00,
2013-03-15 15:55:00,50.0,32.2,29.86,WSW,248,0.4,4.7,50,0.00,,,0.00,WUHU216HW,2013-03-15 19:55:00,
2013-03-15 16:00:00,50.2,32.4,29.86,WSW,248,2.5,3.4,50,0.00,,,0.00,WUHU216HW,2013-03-15 20:00:00,
2013-03-15 16:05:00,50.6,32.1,29.86,NW,315,3.1,3.4,49,0.00,,,0.00,WUHU216HW,2013-03-15 20:05:00,
2013-03-15 16:10:00,50.0,31.7,29.86,WNW,293,1.8,6.3,49,0.00,,,0.00,WUHU216HW,2013-03-15 20:10:00,
2013-03-15 16:15:00,50.0,32.2,29.86,WNW,293,1.8,6.3,50,0.00,,,0.00,WUHU216HW,2013-03-15 20:15:00,
2013-03-15 16:20:00,50.0,32.2,29.86,WSW,248,0.9,6.0,50,0.00,,,0.00,WUHU216HW,2013-03-15 20:20:00,
2013-03-15 16:25:00,50.2,32.4,29.85,West,270,3.6,6.0,50,0.00,,,0.00,WUHU216HW,2013-03-15 20:25:00,
2013-03-15 16:30:00,50.2,32.4,29.85,West,270,0.9,3.6,50,0.00,,,0.00,WUHU216HW,2013-03-15 20:30:00,
2013-03-15 16:35:00,50.0,31.7,29.85,WNW,293,2.0,5.4,49,0.00,,,0.00,WUHU216HW,2013-03-15 20:35:00,
2013-03-15 16:40:00,49.7,31.9,29.85,West,270,1.1,5.4,50,0.00,,,0.00,WUHU216HW,2013-03-15 20:40:00,
2013-03-15 16:45:00,50.0,32.7,29.85,SSW,203,3.4,3.4,51,0.00,,,0.00,WUHU216HW,2013-03-15 20:45:00,
2013-03-15 16:50:00,50.2,32.4,29.85,WSW,248,1.8,3.4,50,0.00,,,0.00,WUHU216HW,2013-03-15 20:50:00,
2013-03-15 16:55:00,50.0,32.2,29.85,WSW,248,1.3,3.4,50,0.00,,,0.00,WUHU216HW,2013-03-15 20:55:00,
2013-03-15 17:00:00,49.7,31.9,29.85,NNW,338,2.0,6.5,50,0.00,,,0.00,WUHU216HW,2013-03-15 21:00:00,
2013-03-15 17:05:00,49.9,32.5,29.84,WSW,248,2.5,6.5,51,0.00,,,0.00,WUHU216HW,2013-03-15 21:05:00,
2013-03-15 17:10:00,50.2,32.9,29.84,WSW,248,2.5,2.5,51,0.00,,,0.00,WUHU216HW,2013-03-15 21:10:00,
2013-03-15 17:15:00,50.2,32.4,29.84,West,270,1.1,5.8,50,0.00,,,0.00,WUHU216HW,2013-03-15 21:15:00,
2013-03-15 17:20:00,50.4,33.0,29.84,WNW,293,2.5,5.8,51,0.00,,,0.00,WUHU216HW,2013-03-15 21:20:00,
2013-03-15 17:25:00,50.2,32.4,29.84,WSW,248,2.5,2.5,50,0.00,,,0.00,WUHU216HW,2013-03-15 21:25:00,
2013-03-15 17:30:00,50.0,32.2,29.84,WSW,248,1.8,2.5,50,0.00,,,0.00,WUHU216HW,2013-03-15 21:30:00,
2013-03-15 17:35:00,49.9,32.5,29.84,SW,225,0.9,3.1,51,0.00,,,0.00,WUHU216HW,2013-03-15 21:35:00,
2013-03-15 17:40:00,49.7,32.3,29.84,NNW,338,3.4,3.4,51,0.00,,,0.00,WUHU216HW,2013-03-15 21:40:00,
2013-03-15 17:45:00,49.3,32.0,29.84,SW,225,0.4,3.4,51,0.00,,,0.00,WUHU216HW,2013-03-15 21:45:00,
2013-03-15 17:50:00,49.3,32.0,29.84,NW,315,2.5,4.5,51,0.00,,,0.00,WUHU216HW,2013-03-15 21:50:00,
2013-03-15 17:55:00,49.3,32.4,29.84,NNW,338,1.3,4.5,52,0.00,,,0.00,WUHU216HW,2013-03-15 21:55:00,
2013-03-15 18:00:00,49.1,32.2,29.84,West,270,1.1,3.6,52,0.00,,,0.00,WUHU216HW,2013-03-15 22:00:00,
2013-03-15 18:05:00,49.3,32.4,29.84,West,270,0.2,2.5,52,0.00,,,0.00,WUHU216HW,2013-03-15 22:05:00,
2013-03-15 18:10:00,49.1,32.2,29.84,SW,225,0.9,2.5,52,0.00,,,0.00,WUHU216HW,2013-03-15 22:10:00,
2013-03-15 18:15:00,49.1,32.2,29.85,West,270,3.1,3.1,52,0.00,,,0.00,WUHU216HW,2013-03-15 22:15:00,
2013-03-15 18:20:00,49.1,32.2,29.84,WSW,248,1.3,3.1,52,0.00,,,0.00,WUHU216HW,2013-03-15 22:20:00,
2013-03-15 18:25:00,49.0,32.0,29.84,WNW,293,5.4,5.4,52,0.00,,,0.00,WUHU216HW,2013-03-15 22:25:00,
2013-03-15 18:30:00,49.0,32.5,29.84,WSW,248,0.9,5.4,53,0.00,,,0.00,WUHU216HW,2013-03-15 22:30:00,
2013-03-15 18:35:00,49.0,32.5,29.84,West,270,1.8,2.9,53,0.00,,,0.00,WUHU216HW,2013-03-15 22:35:00,
2013-03-15 18:40:00,49.0,32.5,29.84,SSW,203,0.4,1.8,53,0.00,,,0.00,WUHU216HW,2013-03-15 22:40:00,
2013-03-15 18:45:00,48.8,32.3,29.85,WNW,293,4.0,4.0,53,0.00,,,0.00,WUHU216HW,2013-03-15 22:45:00,
2013-03-15 18:50:00,48.8,32.3,29.85,SW,225,1.3,4.0,53,0.00,,,0.00,WUHU216HW,2013-03-15 22:50:00,
2013-03-15 18:55:00,48.6,32.7,29.85,West,270,1.1,2.5,54,0.00,,,0.00,WUHU216HW,2013-03-15 22:55:00,
2013-03-15 19:00:00,48.6,32.7,29.85,WSW,248,1.1,2.5,54,0.00,,,0.00,WUHU216HW,2013-03-15 23:00:00,
2013-03-15 19:05:00,48.4,32.5,29.86,West,270,1.1,2.2,54,0.00,,,0.00,WUHU216HW,2013-03-15 23:05:00,
2013-03-15 19:10:00,48.4,32.5,29.86,NW,315,0.7,4.3,54,0.00,,,0.00,WUHU216HW,2013-03-15 23:10:00,
2013-03-15 19:15:00,48.2,32.8,29.85,NW,315,0.4,4.3,55,0.00,,,0.00,WUHU216HW,2013-03-15 23:15:00,
2013-03-15 19:20:00,48.2,32.8,29.86,WNW,293,0.4,2.0,55,0.00,,,0.00,WUHU216HW,2013-03-15 23:20:00,
2013-03-15 19:25:00,48.2,32.8,29.86,West,270,0.4,3.4,55,0.00,,,0.00,WUHU216HW,2013-03-15 23:25:00,
2013-03-15 19:30:00,48.1,32.6,29.86,WSW,248,1.3,3.4,55,0.00,,,0.00,WUHU216HW,2013-03-15 23:30:00,
2013-03-15 19:35:00,48.1,32.6,29.86,West,270,0.9,1.8,55,0.00,,,0.00,WUHU216HW,2013-03-15 23:35:00,
2013-03-15 19:40:00,47.9,32.9,29.86,West,270,1.8,1.8,56,0.00,,,0.00,WUHU216HW,2013-03-15 23:40:00,
2013-03-15 19:45:00,47.9,32.9,29.86,West,270,1.8,3.4,56,0.00,,,0.00,WUHU216HW,2013-03-15 23:45:00,
2013-03-15 19:50:00,47.7,32.7,29.86,WNW,293,0.0,3.4,56,0.00,,,0.00,WUHU216HW,2013-03-15 23:50:00,
2013-03-15 19:55:00,47.7,32.7,29.86,West,270,0.4,3.8,56,0.00,,,0.00,WUHU216HW,2013-03-15 23:55:00,
2013-03-15 20:00:00,47.7,33.2,29.86,NNW,338,0.4,3.8,57,0.00,,,0.00,WUHU216HW,2013-03-16 00:00:00,
2013-03-15 20:05:00,47.5,33.0,29.86,NW,315,0.9,1.8,57,0.00,,,0.00,WUHU216HW,2013-03-16 00:05:00,
2013-03-15 20:10:00,47.5,33.0,29.86,WNW,293,2.0,2.0,57,0.00,,,0.00,WUHU216HW,2013-03-16 00:10:00,
2013-03-15 20:15:00,47.3,32.9,29.86,NW,315,4.0,4.0,57,0.00,,,0.00,WUHU216HW,2013-03-16 00:15:00,
2013-03-15 20:20:00,47.3,32.9,29.87,SW,225,0.4,4.0,57,0.00,,,0.00,WUHU216HW,2013-03-16 00:20:00,
2013-03-15 20:25:00,47.3,32.9,29.87,WNW,293,1.1,4.3,57,0.00,,,0.00,WUHU216HW,2013-03-16 00:25:00,
2013-03-15 20:30:00,47.3,32.9,29.87,West,270,1.3,4.3,57,0.00,,,0.00,WUHU216HW,2013-03-16 00:30:00,
2013-03-15 20:35:00,47.3,32.9,29.87,NNW,338,1.3,2.7,57,0.00,,,0.00,WUHU216HW,2013-03-16 00:35:00,
2013-03-15 20:40:00,47.2,33.1,29.87,WNW,293,3.8,3.8,58,0.00,,,0.00,WUHU216HW,2013-03-16 00:40:00,
2013-03-15 20:45:00,47.2,33.1,29.87,NW,315,0.4,3.8,58,0.00,,,0.00,WUHU216HW,2013-03-16 00:45:00,
2013-03-15 20:50:00,47.2,33.1,29.87,West,270,0.0,1.8,58,0.00,,,0.00,WUHU216HW,2013-03-16 00:50:00,
2013-03-15 20:55:00,47.2,33.1,29.87,North,0,0.2,1.3,58,0.00,,,0.00,WUHU216HW,2013-03-16 00:55:00,
2013-03-15 21:00:00,47.0,32.5,29.88,NNW,338,0.4,1.3,57,0.00,,,0.00,WUHU216HW,2013-03-16 01:00:00,
2013-03-15 21:05:00,46.8,32.3,29.88,NNW,338,0.0,1.3,57,0.00,,,0.00,WUHU216HW,2013-03-16 01:05:00,
2013-03-15 21:10:00,46.6,32.6,29.88,North,0,0.4,1.1,58,0.00,,,0.00,WUHU216HW,2013-03-16 01:10:00,
2013-03-15 21:15:00,46.4,32.4,29.88,West,270,0.4,1.3,58,0.00,,,0.00,WUHU216HW,2013-03-16 01:15:00,
2013-03-15 21:20:00,46.4,32.4,29.88,NNW,338,0.4,1.8,58,0.00,,,0.00,WUHU216HW,2013-03-16 01:20:00,
2013-03-15 21:25:00,46.3,32.2,29.88,NNW,338,0.0,1.8,58,0.00,,,0.00,WUHU216HW,2013-03-16 01:25:00,
2013-03-15 21:30:00,46.1,32.0,29.88,West,270,0.0,1.3,58,0.00,,,0.00,WUHU216HW,2013-03-16 01:30:00,
2013-03-15 21:35:00,45.9,32.4,29.88,NNW,338,0.0,1.3,59,0.00,,,0.00,WUHU216HW,2013-03-16 01:35:00,
2013-03-15 21:40:00,45.7,32.7,29.89,NW,315,0.0,1.1,60,0.00,,,0.00,WUHU216HW,2013-03-16 01:40:00,
2013-03-15 21:45:00,45.7,32.7,29.88,NNW,338,0.0,0.4,60,0.00,,,0.00,WUHU216HW,2013-03-16 01:45:00,
2013-03-15 21:50:00,45.5,32.9,29.89,NNW,338,0.9,1.1,61,0.00,,,0.00,WUHU216HW,2013-03-16 01:50:00,
2013-03-15 21:55:00,45.4,33.1,29.89,NNW,338,0.0,1.1,62,0.00,,,0.00,WUHU216HW,2013-03-16 01:55:00,
2013-03-15 22:00:00,45.2,33.0,29.89,North,0,0.4,1.8,62,0.00,,,0.00,WUHU216HW,2013-03-16 02:00:00,
2013-03-15 22:05:00,45.0,32.8,29.89,NNW,338,0.7,1.8,62,0.00,,,0.00,WUHU216HW,2013-03-16 02:05:00,
2013-03-15 22:10:00,44.8,32.9,29.89,NNW,338,0.4,0.7,63,0.00,,,0.00,WUHU216HW,2013-03-16 02:10:00,
2013-03-15 22:15:00,44.6,32.9,29.89,WNW,293,0.2,0.7,63,0.00,,,0.00,WUHU216HW,2013-03-16 02:15:00,
2013-03-15 22:20:00,44.5,32.7,29.89,NW,315,0.4,0.4,63,0.00,,,0.00,WUHU216HW,2013-03-16 02:20:00,
2013-03-15 22:25:00,44.3,32.5,29.89,NW,315,0.0,0.4,63,0.00,,,0.00,WUHU216HW,2013-03-16 02:25:00,
2013-03-15 22:30:00,44.3,33.6,29.89,ENE,68,0.2,0.7,66,0.00,,,0.00,WUHU216HW,2013-03-16 02:30:00,
2013-03-15 22:35:00,44.1,33.0,29.89,NNW,338,0.0,0.7,65,0.00,,,0.00,WUHU216HW,2013-03-16 02:35:00,
2013-03-15 22:40:00,43.9,33.7,29.89,NNW,338,0.0,0.2,67,0.00,,,0.00,WUHU216HW,2013-03-16 02:40:00,
2013-03-15 22:45:00,43.6,33.8,29.89,NW,315,0.7,1.1,68,0.00,,,0.00,WUHU216HW,2013-03-16 02:45:00,
2013-03-15 22:50:00,43.4,33.6,29.89,WNW,293,0.9,1.1,68,0.00,,,0.00,WUHU216HW,2013-03-16 02:50:00,